Lynchburg, VA

1:39 AM EDT on April 23, 2017 (GMT -0400)
Lynchburg Regional-Glenn

Weather History for KLYH - October, 2011

Change the Weather History Date:

Friday, October 28, 2011

  Actual Average Record
Temperature  
Mean Temperature 45 °F 53 °F  
Max Temperature 54 °F 65 °F 88 °F (1919)
Min Temperature 36 °F 40 °F 23 °F (1936)
Degree Days  
Heating Degree Days 20 12  
Month to date heating degree days 216 246  
Since 1 July heating degree days 246 307  
Cooling Degree Days 0 0  
Month to date cooling degree days 2 11  
Year to date cooling degree days 1346 1027  
Moisture  
Dew Point 35 °F    
Average Humidity 75    
Maximum Humidity 100    
Minimum Humidity 50    
Precipitation  
Precipitation 0.16 in 0.10 in 1.21 in (1973)
Month to date precipitation 2.48 2.78  
Year to date precipitation 30.63 34.59  
Snow  
Snow T in - - ()
Month to date snowfall T  
Since 1 July snowfall T  
Since 1 September snowfall T  
Snow Depth 0.00 in    
Sea Level Pressure  
Sea Level Pressure 30.15 in    
Wind  
Wind Speed 10 mph (NNE)    
Max Wind Speed 17 mph    
Max Gust Speed 24 mph    
Visibility 9 miles    
Events Rain    
T = Trace of Precipitation, MM = Missing Value Source: NWS Daily Summary

Daily Weather History Graph

Daily Weather History Graph

Search for Another Location

Airport or City:

Trip Planner

Search our weather history database for the weather conditions in past years. The results will help you decide how hot, cold, wet, or windy it might be!

Date:

Astronomy

Oct. 28, 2011 Rise Set
Actual Time 7:37 AM EDT 6:23 PM EDT
Civil Twilight 7:10 AM EDT 6:50 PM EDT
Nautical Twilight 6:39 AM EDT 7:20 PM EDT
Astronomical Twilight 6:09 AM EDT 7:51 PM EDT
Moon 9:47 AM EDT (10/28) 7:48 PM EDT (10/28)
Length of Visible Light 11h 40m
Length of Day
10h 46m
Waxing Crescent, 5% of the Moon is Illuminated
Oct 28
Waxing Crescent
Nov 2
First Quarter
Nov 10
Full
Nov 18
Last Quarter
Nov 25
New

Hourly Weather History & Observations

Time (EDT) Temp. Windchill Dew Point Humidity Pressure Visibility Wind Dir Wind Speed Gust Speed Precip Events Conditions
12:54 AM 54.0 °F - 37.9 °F 55% 29.99 in 10.0 mi North 6.9 mph - N/A   Overcast
1:54 AM 53.1 °F - 35.1 °F 50% 30.02 in 10.0 mi North 8.1 mph - N/A   Overcast
2:54 AM 52.0 °F - 36.0 °F 54% 30.04 in 10.0 mi NNE 12.7 mph - N/A   Overcast
3:54 AM 50.0 °F - 37.0 °F 61% 30.06 in 10.0 mi NE 9.2 mph - 0.00 in   Overcast
4:54 AM 48.0 °F - 35.1 °F 61% 30.08 in 10.0 mi NE 16.1 mph 20.7 mph N/A   Overcast
5:54 AM 46.4 °F 41.5 °F 35.6 °F 66% 30.11 in 10.0 mi NNE 10.4 mph - N/A   Overcast
6:54 AM 46.0 °F 41.0 °F 32.0 °F 58% 30.13 in 10.0 mi NNE 10.4 mph - N/A   Overcast
7:54 AM 45.0 °F 38.9 °F 32.0 °F 60% 30.15 in 10.0 mi NE 12.7 mph - 0.00 in   Overcast
8:54 AM 44.1 °F 37.4 °F 33.1 °F 65% 30.18 in 10.0 mi ENE 13.8 mph 18.4 mph N/A   Overcast
9:54 AM 43.0 °F 38.2 °F 32.0 °F 65% 30.20 in 10.0 mi ENE 8.1 mph - N/A   Overcast
10:54 AM 42.1 °F 34.5 °F 28.9 °F 60% 30.21 in 10.0 mi NE 15.0 mph 19.6 mph N/A   Overcast
11:54 AM 43.0 °F 38.2 °F 30.9 °F 62% 30.21 in 10.0 mi ENE 8.1 mph - N/A   Overcast
12:54 PM 42.8 °F 36.6 °F 32.0 °F 66% 30.21 in 10.0 mi NNE 11.5 mph - N/A Rain Light Rain
1:54 PM 39.9 °F 33.9 °F 35.1 °F 83% 30.21 in 10.0 mi NNE 9.2 mph - 0.02 in Rain Light Rain
2:54 PM 39.9 °F 34.5 °F 35.1 °F 83% 30.20 in 10.0 mi NE 8.1 mph - 0.00 in   Overcast
3:54 PM 39.0 °F 34.0 °F 36.0 °F 89% 30.18 in 9.0 mi NE 6.9 mph - 0.03 in Rain Light Rain
4:25 PM 39.2 °F 35.0 °F 37.4 °F 93% 30.17 in 10.0 mi NNE 5.8 mph - 0.00 in   Overcast
4:39 PM 39.2 °F 32.5 °F 37.4 °F 93% 30.16 in 7.0 mi NNE 10.4 mph - 0.00 in Rain Light Rain
4:47 PM 39.2 °F 33.6 °F 35.6 °F 87% 30.17 in 10.0 mi NNE 8.1 mph - 0.00 in Rain Light Rain
4:54 PM 39.0 °F 32.8 °F 36.0 °F 89% 30.18 in 10.0 mi NNE 9.2 mph - 0.00 in Rain Light Rain
5:23 PM 39.2 °F 33.6 °F 35.6 °F 87% 30.17 in 10.0 mi NNE 8.1 mph - 0.00 in Rain Light Rain
5:38 PM 39.2 °F 32.5 °F 35.6 °F 87% 30.16 in 7.0 mi NE 10.4 mph - 0.01 in Rain Light Rain
5:54 PM 39.0 °F 35.7 °F 36.0 °F 89% 30.18 in 7.0 mi North 4.6 mph - 0.01 in Rain Light Rain
6:10 PM 37.4 °F 30.8 °F 35.6 °F 93% 30.16 in 6.0 mi NNE 9.2 mph - 0.01 in Rain Light Rain
6:26 PM 37.4 °F 31.4 °F 35.6 °F 93% 30.16 in 8.0 mi NNE 8.1 mph - 0.02 in Rain Light Rain
6:47 PM 37.4 °F 30.3 °F 35.6 °F 93% 30.16 in 8.0 mi NNE 10.4 mph - 0.02 in Rain Light Rain
6:54 PM 37.9 °F 30.0 °F 36.0 °F 93% 30.17 in 7.0 mi NNE 12.7 mph - 0.03 in Rain Light Rain
7:04 PM 37.4 °F 31.4 °F 35.6 °F 93% 30.16 in 7.0 mi North 8.1 mph - 0.00 in Rain Light Rain
7:25 PM 37.4 °F 32.1 °F 35.6 °F 93% 30.17 in 9.0 mi North 6.9 mph - 0.01 in Rain Light Rain
7:54 PM 37.0 °F 29.8 °F 36.0 °F 96% 30.17 in 10.0 mi NNE 10.4 mph - 0.02 in Rain Light Rain
8:54 PM 37.0 °F 29.8 °F 36.0 °F 96% 30.16 in 10.0 mi NNE 10.4 mph 18.4 mph 0.00 in   Overcast
9:54 PM 37.0 °F 28.9 °F 35.1 °F 93% 30.15 in 6.0 mi NE 12.7 mph - 0.00 in Rain Light Rain
10:54 PM 36.0 °F 28.0 °F 36.0 °F 100% 30.14 in 4.0 mi NNE 11.5 mph - 0.02 in Rain Light Rain
11:54 PM 36.0 °F 32.1 °F 36.0 °F 100% 30.13 in 4.0 mi North 4.6 mph - 0.02 in Rain Light Rain